DAL1766 MMCZ-KATL

Flight info

Callsign DAL1766
Flight time N/A
Altitude 35000
Route CZM7C CZM UB881 CUN UM219 MYDIA M219 CIGAR M215 KNOST DCT CAMJO DCT LAIRI DCT LARZZ JJEDI4
Aircraft B738/M-SDE2E3FGHIRWXY/LB1

Departure

Time N/A
Airport Cozumel International Airport (MMCZ)

Arrival

Time 2026-05-07 21:21
Airport Hartsfield Jackson Atlanta International Airport (KATL)
Time Latitude Longitude Altitude Speed Heading
2026-05-07 20:05 26.90784 -85.02376 35035 ft 479 kts 14°
2026-05-07 20:05 26.97058 -84.99812 35035 ft 479 kts 14°
2026-05-07 20:06 27.03315 -84.97251 35037 ft 479 kts 14°
2026-05-07 20:06 27.09578 -84.94686 35048 ft 479 kts 14°
2026-05-07 20:07 27.15840 -84.92118 35037 ft 479 kts 14°
2026-05-07 20:07 27.22093 -84.89551 35035 ft 479 kts 14°
2026-05-07 20:08 27.28349 -84.86978 35035 ft 478 kts 14°
2026-05-07 20:08 27.34569 -84.84418 35035 ft 478 kts 14°
2026-05-07 20:09 27.40824 -84.81840 35046 ft 479 kts 14°
2026-05-07 20:10 27.49588 -84.76411 35049 ft 499 kts 45°
2026-05-07 20:10 27.51562 -84.73165 35032 ft 507 kts 63°
2026-05-07 20:10 27.52950 -84.69504 35058 ft 508 kts 65°
2026-05-07 20:11 27.55612 -84.62113 35035 ft 509 kts 65°
2026-05-07 20:11 27.58323 -84.54721 35028 ft 510 kts 64°
2026-05-07 20:12 27.60613 -84.48605 35035 ft 510 kts 64°
2026-05-07 20:12 27.63388 -84.41243 35037 ft 510 kts 64°
2026-05-07 20:13 27.66161 -84.33875 35029 ft 510 kts 64°
2026-05-07 20:13 27.68922 -84.26511 35038 ft 510 kts 64°
2026-05-07 20:14 27.71678 -84.19142 35033 ft 509 kts 64°
2026-05-07 20:14 27.74426 -84.11780 35034 ft 509 kts 64°
2026-05-07 20:15 27.77170 -84.04415 35040 ft 509 kts 64°
2026-05-07 20:15 27.79907 -83.97055 35041 ft 508 kts 64°
2026-05-07 20:16 27.82639 -83.89693 35043 ft 508 kts 64°
2026-05-07 20:16 27.85352 -83.82369 35038 ft 508 kts 64°
2026-05-07 20:17 27.88077 -83.74999 35036 ft 507 kts 64°
2026-05-07 20:17 27.90798 -83.67625 35032 ft 507 kts 64°
2026-05-07 20:18 27.93512 -83.60254 35046 ft 508 kts 65°
2026-05-07 20:18 27.96227 -83.52867 35036 ft 509 kts 64°
2026-05-07 20:19 27.99283 -83.45762 35016 ft 500 kts 45°
2026-05-07 20:19 28.01738 -83.43070 35062 ft 488 kts 31°
2026-05-07 20:19 28.04603 -83.41089 35048 ft 478 kts 17°
2026-05-07 20:20 28.10879 -83.38997 35042 ft 469 kts
2026-05-07 20:20 28.17243 -83.37282 35042 ft 471 kts
2026-05-07 20:21 28.23635 -83.35522 35053 ft 473 kts
2026-05-07 20:21 28.30039 -83.33701 35044 ft 476 kts
2026-05-07 20:22 28.36469 -83.31845 35046 ft 477 kts
2026-05-07 20:22 28.42870 -83.29991 35043 ft 478 kts
2026-05-07 20:23 28.49312 -83.28126 35042 ft 478 kts
2026-05-07 20:23 28.55760 -83.26258 35046 ft 478 kts
2026-05-07 20:24 28.62198 -83.24392 35037 ft 477 kts
2026-05-07 20:24 28.68628 -83.22526 35040 ft 476 kts
2026-05-07 20:25 28.75051 -83.20659 35043 ft 475 kts
2026-05-07 20:25 28.81456 -83.18795 35049 ft 475 kts
2026-05-07 20:26 28.87819 -83.16942 35036 ft 475 kts
2026-05-07 20:26 28.94216 -83.15076 35044 ft 474 kts
2026-05-07 20:27 29.00617 -83.13206 35037 ft 474 kts
2026-05-07 20:27 29.07014 -83.11336 35039 ft 474 kts
2026-05-07 20:28 29.13409 -83.09463 35042 ft 474 kts
2026-05-07 20:28 29.19803 -83.07589 35039 ft 475 kts
2026-05-07 20:29 29.26204 -83.05710 35038 ft 475 kts
2026-05-07 20:29 29.32610 -83.03826 35038 ft 475 kts
2026-05-07 20:30 29.39019 -83.01939 35046 ft 476 kts
2026-05-07 20:30 29.45400 -83.00059 35050 ft 476 kts
2026-05-07 20:31 29.51832 -82.98161 35039 ft 477 kts
2026-05-07 20:31 29.58263 -82.96260 35032 ft 477 kts
2026-05-07 20:32 29.64697 -82.94356 35055 ft 477 kts
2026-05-07 20:32 29.71136 -82.92449 35038 ft 478 kts
2026-05-07 20:33 29.77573 -82.90539 35028 ft 478 kts
2026-05-07 20:33 29.84012 -82.88626 35035 ft 478 kts
2026-05-07 20:34 29.90454 -82.86710 35026 ft 478 kts
2026-05-07 20:34 29.96894 -82.84791 35022 ft 478 kts
2026-05-07 20:35 30.03293 -82.82882 35023 ft 477 kts
2026-05-07 20:35 30.09712 -82.80964 35008 ft 476 kts
2026-05-07 20:36 30.16119 -82.79048 35014 ft 475 kts
2026-05-07 20:36 30.22520 -82.77131 35022 ft 474 kts
2026-05-07 20:37 30.28901 -82.75218 35021 ft 473 kts
2026-05-07 20:37 30.35277 -82.73303 35007 ft 473 kts
2026-05-07 20:38 30.41643 -82.71389 35014 ft 472 kts
2026-05-07 20:38 30.47998 -82.69476 35046 ft 472 kts
2026-05-07 20:39 30.54337 -82.68098 35053 ft 459 kts 355°
2026-05-07 20:39 30.60694 -82.67576 35049 ft 458 kts 354°
2026-05-07 20:40 30.67063 -82.67094 35054 ft 459 kts 355°
2026-05-07 20:40 30.73445 -82.66552 35055 ft 460 kts 355°
2026-05-07 20:41 30.79847 -82.65974 35075 ft 462 kts 356°
2026-05-07 20:41 30.86267 -82.65384 35072 ft 463 kts 356°
2026-05-07 20:42 30.92707 -82.64792 35052 ft 465 kts 356°
2026-05-07 20:42 30.99167 -82.64200 34990 ft 466 kts 356°
2026-05-07 20:43 31.05632 -82.63607 35006 ft 467 kts 356°
2026-05-07 20:43 31.12122 -82.63011 34997 ft 468 kts 356°
2026-05-07 20:44 31.18625 -82.62412 34995 ft 469 kts 356°
2026-05-07 20:44 31.25091 -82.61816 34992 ft 469 kts 356°
2026-05-07 20:45 31.31603 -82.61215 35000 ft 469 kts 356°
2026-05-07 20:45 31.38128 -82.60615 34993 ft 470 kts 356°
2026-05-07 20:46 31.44651 -82.60010 34970 ft 471 kts 356°
2026-05-07 20:46 31.51190 -82.59403 34971 ft 471 kts 356°
2026-05-07 20:47 31.57722 -82.58797 34974 ft 471 kts 356°
2026-05-07 20:47 31.64272 -82.58189 34970 ft 472 kts 355°
2026-05-07 20:48 31.70830 -82.57579 34961 ft 473 kts 355°
2026-05-07 20:48 31.77407 -82.56966 34957 ft 474 kts 355°
2026-05-07 20:49 31.83997 -82.56351 34960 ft 475 kts 355°
2026-05-07 20:49 31.90595 -82.55735 34957 ft 476 kts 355°
2026-05-07 20:49 31.93854 -82.55766 34933 ft 459 kts 341°
2026-05-07 20:50 31.96856 -82.56744 34958 ft 440 kts 327°
2026-05-07 20:50 31.99510 -82.58397 34942 ft 426 kts 316°
2026-05-07 20:50 32.01729 -82.60565 34959 ft 417 kts 310°
2026-05-07 20:51 32.06084 -82.65112 34953 ft 419 kts 310°
2026-05-07 20:51 32.10483 -82.69637 34942 ft 420 kts 310°
2026-05-07 20:52 32.14909 -82.74161 34964 ft 422 kts 310°
2026-05-07 20:52 32.17142 -82.76444 34590 ft 429 kts 310°
2026-05-07 20:52 32.19395 -82.78750 34076 ft 428 kts 310°
2026-05-07 20:52 32.21648 -82.81054 33353 ft 428 kts 310°
2026-05-07 20:53 32.23901 -82.83359 32638 ft 428 kts 310°
2026-05-07 20:53 32.26152 -82.85665 31916 ft 428 kts 310°
2026-05-07 20:53 32.28405 -82.87974 31186 ft 428 kts 310°
2026-05-07 20:53 32.30651 -82.90280 30483 ft 428 kts 310°
2026-05-07 20:54 32.32883 -82.92570 30002 ft 422 kts 310°
2026-05-07 20:54 32.35087 -82.94832 29372 ft 417 kts 310°
2026-05-07 20:54 32.37259 -82.97063 28823 ft 410 kts 310°
2026-05-07 20:54 32.39394 -82.99258 28406 ft 402 kts 310°
2026-05-07 20:55 32.41490 -83.01410 27917 ft 395 kts 310°
2026-05-07 20:55 32.43521 -83.03496 27490 ft 389 kts 310°
2026-05-07 20:55 32.45560 -83.05596 26953 ft 385 kts 309°
2026-05-07 20:55 32.47576 -83.07674 26438 ft 381 kts 309°
2026-05-07 20:56 32.49564 -83.09727 25943 ft 378 kts 309°
2026-05-07 20:56 32.51539 -83.11766 25448 ft 374 kts 309°
2026-05-07 20:56 32.53493 -83.13786 24960 ft 371 kts 309°
2026-05-07 20:56 32.55434 -83.15792 24474 ft 369 kts 309°
2026-05-07 20:57 32.57366 -83.17789 23979 ft 367 kts 309°
2026-05-07 20:57 32.59286 -83.19775 23465 ft 366 kts 309°
2026-05-07 20:57 32.61206 -83.21765 22816 ft 366 kts 309°
2026-05-07 20:57 32.63115 -83.23743 22309 ft 362 kts 309°
2026-05-07 20:58 32.64368 -83.25041 21981 ft 360 kts 309°
2026-05-07 20:58 32.66849 -83.27616 21349 ft 355 kts 309°
2026-05-07 20:58 32.68698 -83.29535 20888 ft 351 kts 309°
2026-05-07 20:58 32.70525 -83.31434 20427 ft 347 kts 309°
2026-05-07 20:59 32.72332 -83.33314 19993 ft 344 kts 309°
2026-05-07 20:59 32.73542 -83.34574 19686 ft 341 kts 309°
2026-05-07 20:59 32.75321 -83.36427 19232 ft 338 kts 309°
2026-05-07 20:59 32.77081 -83.38262 18794 ft 335 kts 308°
2026-05-07 21:00 32.78804 -83.40059 18361 ft 332 kts 309°
2026-05-07 21:00 32.80555 -83.41885 17883 ft 329 kts 309°
2026-05-07 21:00 32.82244 -83.43650 17434 ft 325 kts 309°
2026-05-07 21:00 32.83933 -83.45415 17024 ft 321 kts 309°
2026-05-07 21:01 32.85601 -83.47158 16605 ft 318 kts 309°
2026-05-07 21:01 32.87255 -83.48889 16168 ft 315 kts 310°
2026-05-07 21:01 32.88899 -83.50611 15737 ft 313 kts 310°
2026-05-07 21:01 32.90524 -83.52312 15322 ft 309 kts 310°
2026-05-07 21:02 32.92119 -83.53974 15192 ft 298 kts 310°
2026-05-07 21:02 32.93655 -83.55578 15050 ft 288 kts 309°
2026-05-07 21:02 32.95137 -83.57132 14816 ft 282 kts 309°
2026-05-07 21:02 32.96605 -83.58674 14527 ft 281 kts 310°
2026-05-07 21:03 32.98080 -83.60224 14187 ft 284 kts 310°
2026-05-07 21:03 32.99582 -83.61804 13854 ft 291 kts 310°
2026-05-07 21:03 33.01101 -83.63398 13454 ft 290 kts 311°
2026-05-07 21:03 33.02594 -83.64961 13064 ft 288 kts 311°
2026-05-07 21:04 33.04092 -83.66529 12677 ft 286 kts 311°
2026-05-07 21:04 33.05580 -83.68090 12295 ft 284 kts 311°
2026-05-07 21:04 33.07055 -83.69638 11936 ft 281 kts 311°
2026-05-07 21:04 33.08513 -83.71171 11722 ft 275 kts 311°
2026-05-07 21:05 33.09926 -83.72652 11589 ft 266 kts 311°
2026-05-07 21:05 33.11292 -83.74085 11455 ft 257 kts 310°
2026-05-07 21:05 33.12612 -83.75472 11351 ft 248 kts 310°
2026-05-07 21:05 33.13889 -83.76815 11245 ft 242 kts 310°
2026-05-07 21:06 33.15159 -83.78161 10950 ft 246 kts 310°
2026-05-07 21:06 33.16453 -83.79536 10689 ft 254 kts 311°
2026-05-07 21:06 33.17779 -83.80942 10403 ft 262 kts 311°
2026-05-07 21:06 33.19168 -83.82416 10143 ft 262 kts 311°
2026-05-07 21:07 33.20441 -83.83879 9992 ft 254 kts 308°
2026-05-07 21:07 33.21682 -83.85368 9714 ft 252 kts 308°
2026-05-07 21:07 33.22911 -83.86850 9429 ft 250 kts 308°
2026-05-07 21:07 33.24137 -83.88323 9154 ft 249 kts 308°
2026-05-07 21:08 33.25356 -83.89781 8867 ft 248 kts 309°
2026-05-07 21:08 33.26575 -83.91238 8590 ft 247 kts 309°
2026-05-07 21:08 33.27788 -83.92684 8308 ft 246 kts 309°
2026-05-07 21:08 33.28992 -83.94120 8057 ft 244 kts 309°
2026-05-07 21:09 33.30201 -83.95562 8022 ft 248 kts 310°
2026-05-07 21:09 33.31426 -83.97029 7972 ft 249 kts 310°
2026-05-07 21:09 33.32642 -83.98487 7858 ft 246 kts 310°
2026-05-07 21:09 33.33849 -83.99931 7589 ft 245 kts 309°
2026-05-07 21:10 33.35054 -84.01374 7284 ft 246 kts 310°
2026-05-07 21:10 33.36473 -84.02559 6978 ft 257 kts 334°
2026-05-07 21:10 33.38245 -84.02995 6694 ft 265 kts 350°
2026-05-07 21:10 33.40075 -84.03044 6415 ft 267 kts 353°
2026-05-07 21:11 33.41926 -84.03042 6205 ft 264 kts 353°
2026-05-07 21:11 33.43760 -84.03055 6014 ft 264 kts 353°
2026-05-07 21:11 33.47410 -84.03185 5965 ft 260 kts 346°
2026-05-07 21:12 33.49181 -84.03571 5974 ft 258 kts 342°
2026-05-07 21:12 33.50922 -84.04015 5960 ft 250 kts 342°
2026-05-07 21:12 33.52570 -84.04432 5979 ft 234 kts 341°
2026-05-07 21:12 33.54125 -84.04818 5968 ft 224 kts 341°
2026-05-07 21:13 33.55638 -84.05189 5959 ft 220 kts 341°
2026-05-07 21:13 33.57118 -84.05549 5956 ft 213 kts 341°
2026-05-07 21:13 33.58563 -84.05898 5955 ft 213 kts 340°
2026-05-07 21:13 33.60044 -84.06261 5983 ft 222 kts 341°
2026-05-07 21:14 33.61551 -84.06712 5973 ft 221 kts 328°
2026-05-07 21:14 33.62635 -84.07846 5933 ft 207 kts 297°
2026-05-07 21:14 33.63077 -84.09473 5638 ft 208 kts 272°
2026-05-07 21:14 33.63106 -84.11200 5371 ft 206 kts 271°
2026-05-07 21:15 33.63143 -84.12908 5130 ft 203 kts 271°
2026-05-07 21:15 33.63179 -84.14589 4896 ft 201 kts 271°
2026-05-07 21:15 33.63209 -84.16263 4660 ft 201 kts 270°
2026-05-07 21:15 33.63216 -84.17946 4438 ft 200 kts 270°
2026-05-07 21:16 33.63215 -84.19595 4210 ft 194 kts 270°
2026-05-07 21:16 33.63211 -84.21175 3987 ft 185 kts 270°
2026-05-07 21:16 33.63208 -84.22676 3825 ft 174 kts 270°
2026-05-07 21:16 33.63204 -84.24114 3642 ft 174 kts 271°
2026-05-07 21:17 33.63201 -84.25547 3452 ft 170 kts 271°
2026-05-07 21:17 33.63200 -84.26964 3265 ft 169 kts 272°
2026-05-07 21:17 33.63197 -84.28343 3158 ft 157 kts 271°
2026-05-07 21:17 33.63194 -84.29603 2980 ft 147 kts 272°
2026-05-07 21:18 33.63193 -84.30807 2801 ft 144 kts 272°
2026-05-07 21:18 33.63191 -84.31990 2630 ft 140 kts 272°
2026-05-07 21:18 33.63189 -84.33149 2466 ft 139 kts 272°
2026-05-07 21:18 33.63188 -84.34318 2270 ft 141 kts 271°
2026-05-07 21:19 33.63187 -84.35497 2067 ft 141 kts 270°
2026-05-07 21:19 33.63186 -84.36667 1887 ft 140 kts 271°
2026-05-07 21:19 33.63184 -84.37845 1716 ft 142 kts 272°
2026-05-07 21:19 33.63184 -84.39026 1506 ft 142 kts 272°
2026-05-07 21:20 33.63183 -84.40206 1312 ft 143 kts 275°
2026-05-07 21:20 33.63180 -84.41402 1124 ft 146 kts 272°
2026-05-07 21:20 33.63184 -84.42595 1005 ft 138 kts 274°
2026-05-07 21:20 33.63184 -84.43566 1007 ft 80 kts 269°
2026-05-07 21:21 33.63196 -84.44050 1004 ft 34 kts 285°
2026-05-07 21:21 33.63261 -84.44233 1005 ft 11 kts 310°
2026-05-07 21:21 33.63331 -84.44250 1005 ft 11 kts 26°
2026-05-07 21:21 33.63394 -84.44204 1005 ft 11 kts 19°
2026-05-07 21:22 33.63464 -84.44189 1005 ft 10 kts 357°
2026-05-07 21:22 33.63534 -84.44192 1006 ft 10 kts 359°
2026-05-07 21:22 33.63605 -84.44192 1006 ft 11 kts
2026-05-07 21:22 33.63658 -84.44135 1006 ft 11 kts 74°
2026-05-07 21:23 33.63663 -84.44029 1006 ft 17 kts 90°
2026-05-07 21:23 33.63664 -84.43840 1005 ft 25 kts 90°
2026-05-07 21:23 33.63664 -84.43635 1005 ft 24 kts 90°
2026-05-07 21:23 33.63664 -84.43442 1005 ft 23 kts 86°
2026-05-07 21:24 33.63664 -84.43255 1005 ft 22 kts 90°
2026-05-07 21:24 33.63664 -84.43074 1005 ft 21 kts 89°
2026-05-07 21:24 33.63665 -84.42898 1005 ft 21 kts 90°
2026-05-07 21:24 33.63659 -84.42728 1006 ft 20 kts 96°
2026-05-07 21:25 33.63655 -84.42563 1006 ft 20 kts 89°
2026-05-07 21:25 33.63656 -84.42403 1006 ft 19 kts 90°
2026-05-07 21:25 33.63656 -84.42248 1006 ft 18 kts 90°
2026-05-07 21:25 33.63710 -84.42148 1006 ft 16 kts
2026-05-07 21:26 33.63822 -84.42144 1005 ft 18 kts
2026-05-07 21:26 33.63953 -84.42146 1005 ft 19 kts 358°
2026-05-07 21:26 33.64048 -84.42129 1005 ft 9 kts 36°
2026-05-07 21:26 33.64055 -84.42065 1005 ft 4 kts 93°